Simultaneous Nadir Overpasses (SNOs) Predictions

Prediction of SNOs over PacNW region [( 10.00, 139.50) to ( 22.70, 165.60)] between AQUA and NPP Satellites:

Table of predicted SNOs over PacNW region for the next 30.0 days since TLE Epoch: 12/17/2022
Index Date (AQUA) Time (AQUA) AQUA Lat,Lon Date (NPP) Time (NPP) NPP Lat,Lon Distance(km) Time Diff (sec)
1 12/20/2022 03:09:09 22.67, 155.01 12/20/2022 03:09:02 21.82, 150.77 445.63 7
2 12/30/2022 15:51:30 20.45, 151.05 12/30/2022 15:50:53 21.21, 147.26 402.75 37
3 01/07/2023 14:58:02 22.58, 164.83 01/07/2023 14:59:37 23.57, 160.52 454.68 95
4 01/10/2023 03:18:44 22.67, 152.77 01/10/2023 03:15:48 21.95, 149.11 384.78 176
